RH
69 72 71 69 77 81 84 82 75 70 65 60 57 62 63 64 67 78 80 80 83 83 82 83 84 83 85 81 80 78 77 74 71 73 73 74 77 80 81 82 84 75 66 60 50 50 46 44 49
67 75 76 69 76 83 81 79 77 72 70 69 66 62 59 65 67 68 77 79 82 83 82 83 86 86 88 86 83 83 80 77 75 76 77 77 81 84 83 81 81 74 63 59 50 49 44 46 51
68 74 73 74 79 82 83 74 66 59 66 65 62 58 59 60 59 66 70 74 76 81 82 83 86 87 89 87 89 89 86 83 79 78 80 80 82 87 88 81 79 70 63 57 50 50 49 54 51
72 72 75 77 77 79 78 76 74 64 56 57 61 59 55 60 59 49 59 67 72 76 80 82 84 86 87 86 93 93 86 82 79 79 81 83 89 91 88 81 77 72 56 45 42 39 47 52 58
74 72 73 77 78 81 77 74 72 63 60 58 55 57 59 53 54 48 52 62 68 70 72 76 80 81 81 85 89 92 90 87 82 79 81 85 90 89 83 75 71 63 48 40 35 40 50 70 79
68 67 72 75 79 78 75 74 74 65 59 60 59 56 55 55 56 50 54 61 66 68 72 75 80 87 90 90 91 91 87 86 82 80 82 84 91 87 82 77 65 46 39 34 35 50 68 79 85
65 63 65 68 73 72 70 70 72 67 67 70 65 61 53 53 59 52 53 59 65 68 74 77 78 81 86 89 83 87 87 83 81 82 82 85 92 88 87 75 63 44 35 34 42 62 71 77 81
59 63 62 64 66 62 62 66 70 69 74 71 69 61 54 50 49 55 51 59 62 65 70 77 73 77 80 81 81 83 85 85 83 85 85 90 92 88 86 69 56 38 31 41 53 59 69 78 82
58 59 64 60 64 61 63 61 73 74 72 72 68 69 54 49 48 49 53 59 60 63 70 76 75 82 81 83 83 84 87 88 87 89 91 92 94 84 84 64 48 32 35 44 50 56 72 78 79
56 60 59 57 57 58 64 64 65 72 77 73 67 66 64 55 49 50 53 57 62 65 72 76 75 80 84 81 85 88 90 93 93 93 94 92 91 71 52 42 34 32 36 48 62 76 80 78 68
54 60 58 58 56 55 59 64 63 74 76 72 72 73 71 54 51 52 53 58 64 70 72 76 76 80 81 82 88 91 90 93 94 93 94 92 88 72 50 38 33 35 43 68 67 71 77 81 79
54 55 59 61 60 58 57 65 76 73 71 69 70 73 75 54 53 54 55 58 66 69 73 75 72 76 80 83 90 91 89 93 91 92 93 93 87 73 50 40 40 42 58 66 67 76 69 74 76
49 51 56 60 60 59 58 65 67 68 68 68 73 72 62 56 58 57 57 58 60 65 66 64 63 67 81 86 89 90 88 87 89 92 95 87 74 61 46 43 42 45 59 66 71 70 64 67 73
44 51 57 61 58 60 60 63 64 62 67 68 72 72 58 57 55 55 55 55 55 56 57 59 60 64 71 84 89 91 92 92 92 93 91 81 75 65 44 41 41 45 67 67 75 77 66 60 65
48 51 52 53 54 58 59 62 63 67 69 72 73 66 63 59 57 56 56 55 56 58 60 64 65 66 69 82 86 90 93 94 92 90 87 82 74 62 48 45 44 50 65 68 79 74 63 55 64
50 53 53 49 50 55 58 61 64 67 69 68 72 66 59 57 59 57 58 60 58 63 66 70 73 73 68 78 84 86 89 91 91 89 83 77 64 58 51 44 45 56 59 64 76 70 65 64 66
57 55 53 47 49 58 60 56 59 68 69 69 75 77 65 56 61 57 57 56 59 64 67 68 79 80 71 77 84 83 84 85 83 82 85 70 80 55 50 48 44 52 51 62 64 63 70 70 63
55 53 51 46 47 48 58 58 60 65 65 67 77 75 67 59 58 59 56 55 54 59 62 66 78 76 72 76 82 81 82 81 78 83 81 72 68 54 47 40 44 44 57 72 70 62 59 78 70
46 51 49 42 41 47 55 56 57 58 62 65 62 67 67 54 57 56 54 49 50 53 59 64 76 76 72 76 78 80 77 78 80 75 79 74 63 45 37 39 43 49 61 73 67 61 59 69 68
43 43 39 37 43 52 58 56 54 53 58 59 59 55 59 54 55 58 53 46 47 51 54 62 72 77 76 73 74 76 78 79 81 74 72 66 55 37 36 46 46 44 52 70 64 54 47 66 62
31 39 39 42 53 55 57 54 50 47 50 53 53 56 53 51 53 56 58 57 54 47 49 53 66 73 76 75 72 73 75 79 78 78 75 60 45 35 37 43 44 45 51 74 66 52 44 61 67
33 34 35 43 52 49 49 53 46 48 52 46 47 51 52 54 54 56 60 61 59 51 48 45 58 68 72 73 73 77 80 82 83 79 73 60 43 37 32 39 42 50 56 65 64 63 46 44 66
30 30 34 36 44 43 46 48 43 47 52 49 44 47 49 49 47 53 62 64 66 62 58 46 48 62 66 74 75 78 80 79 82 79 80 68 46 39 32 32 48 63 61 68 60 54 44 44 59
26 28 30 31 41 46 40 42 47 45 45 42 40 39 43 45 47 48 57 60 67 69 68 52 46 52 58 62 67 73 79 78 78 73 72 64 51 39 31 34 46 60 58 58 56 53 46 43 51
25 27 32 31 36 40 41 40 39 34 36 38 38 35 36 40 43 46 51 55 63 73 70 56 46 46 52 57 61 67 74 77 73 70 64 58 44 42 37 38 42 48 51 51 47 46 46 44 44
26 26 30 31 35 32 40 42 36 33 35 38 39 39 39 37 42 41 41 51 59 65 69 62 52 47 47 50 56 61 68 72 70 66 61 54 54 44 43 43 55 56 53 47 44 45 46 45 45
28 30 30 34 34 32 32 37 34 34 35 35 38 39 41 37 37 38 40 42 48 55 61 67 60 51 47 47 49 56 66 68 67 65 60 58 57 51 49 59 54 54 52 50 52 47 47 44 44
26 27 30 33 32 30 32 35 42 36 35 34 36 38 40 41 41 37 38 40 43 50 54 71 64 63 47 46 45 51 60 66 64 74 68 56 72 57 58 61 60 56 58 51 50 47 45 43 45
28 27 27 29 34 35 33 34 33 33 36 37 35 35 36 42 43 44 37 41 44 49 48 53 70 62 54 44 47 45 50 61 63 64 59 60 64 65 65 64 66 64 65 57 48 48 49 46 47
30 31 34 38 36 38 40 38 30 33 34 37 36 33 36 41 42 45 42 45 44 45 46 51 59 67 59 49 44 46 48 48 55 61 59 61 61 63 62 60 70 72 70 67 58 51 54 50 52